Location: Strawberry
(45.6646°N, 111.9596°W)
Time: 14:49:08
(UTC+00:00)

Tiangong - Pass Details

Date: 22 August 2022
Orbit: 377 x 382 km, 41.5° (Epoch: 27 September)

Event Time Altitude Azimuth Distance (km) Brightness Sun altitude
Rises 03:44:15 0° 263° (W) 2,240 2.6 -13.3°
Reaches altitude 10° 03:46:25 10° 254° (WSW) 1,386 1.3 -13.6°
Maximum altitude 03:49:18 35° 186° (S) 625 -1.3 -14.0°
Enters shadow 03:50:10 29° 150° (SSE) 723 -1.3 -14.1°
